Retour au catalogue

STARLINK-4432

ActifCommunicationsSSO
NORAD 53487·PAYLOAD·🇺🇸 United States

Lancé Aug 12, 2022 depuis Vandenberg Space Force Base

Loading…

Prochains Passages (prochaines 24 heures)

TLE

FraisSource: CelesTrak SupGP

Époque: Sep 15, 2026, 02:27 UTC

1 53487C 22099Y   26258.10256944  .00005378  00000+0  16698-3 0  2586
2 53487  97.2856  15.8860 0001394  90.6424 335.1149 15.33432608    18

Suivez STARLINK-4432 en temps réel avec AllMySat

Download on the App Store